This is the latest recevied weather packets stored in our database for station/object JF7ELG-13. If no packets are shown the sender has not sent any weather packets the latest 10 day(s).
| Time | Temp. | Humidity | Pressure | Rain* | Wind** | Luminosity | Snow |
|---|---|---|---|---|---|---|---|
| 1777574915 | 11.67° C | 94% | 1012.2 hPa | 1.02 mm | - | - | - |
| 1777574024 | 11.67° C | 94% | 1012.3 hPa | 1.02 mm | - | - | - |
| 1777573104 | 12.22° C | 93% | 1012.3 hPa | 1.02 mm | - | - | - |
| 1777572233 | 12.78° C | 94% | 1012.4 hPa | 1.02 mm | - | - | - |
| 1777571330 | 12.78° C | 93% | 1012.7 hPa | 1.02 mm | - | - | - |
| 1777570396 | 12.22° C | 92% | 1012.8 hPa | 0 mm | - | - | - |
| 1777569525 | 11.67° C | 92% | 1013 hPa | 0 mm | - | - | - |
| 1777568614 | 10.56° C | 91% | 1013 hPa | 0 mm | - | - | - |
| 1777567727 | 10° C | 90% | 1013.3 hPa | 0 mm | - | - | - |
| 1777566800 | 10° C | 90% | 1013.8 hPa | 0 mm | - | - | - |
| 1777565919 | 9.44° C | 89% | 1013.7 hPa | 0 mm | - | - | - |
| 1777565016 | 9.44° C | 89% | 1013.9 hPa | 0 mm | - | - | - |
| 1777564102 | 9.44° C | 89% | 1014.1 hPa | 0 mm | - | - | - |
| 1777563218 | 9.44° C | 88% | 1014.5 hPa | 0 mm | - | - | - |
| 1777562308 | 8.89° C | 88% | 1014.7 hPa | 0 mm | - | - | - |
| 1777561412 | 8.89° C | 88% | 1015 hPa | 0 mm | - | - | - |
| 1777560523 | 8.33° C | 88% | 1015.4 hPa | 0 mm | - | - | - |
| 1777559619 | 8.33° C | 89% | 1015.4 hPa | 0 mm | - | - | - |
| 1777558700 | 8.33° C | 88% | 1015.8 hPa | 0 mm | - | - | - |
| 1777557833 | 7.78° C | 87% | 1016 hPa | 0 mm | - | - | - |
| 1777556902 | 7.22° C | 88% | 1016.2 hPa | 0 mm | - | - | - |
| 1777556004 | 7.78° C | 85% | 1016.2 hPa | 0 mm | - | - | - |
| 1777555117 | 7.78° C | 83% | 1016.3 hPa | 0 mm | - | - | - |
| 1777554234 | 7.78° C | 83% | 1016.6 hPa | 0 mm | - | - | - |
| 1777553305 | 8.33° C | 81% | 1016.9 hPa | 0 mm | - | - | - |
* Rain latest hour (hover to see other rain measurements)
** Current wind speed in m/s (hover to see current wind gust speed)